Weather Roundup
Issued by NWS Chicago, IL

Home | Current Version | Previous Version | Text Only | Print | Product List | Glossary Off
Versions: 1 2 3 4 5 6 7 8 9 10 11 12 13 14 15 16 17 18 19 20 21 22 23 24 25 26 27 28 29 30 31 32 33 34 35 36 37 38 39 40 41 42 43 44 45 46 47 48 49 50

393
NZUS59 KLOT 202208
HRRLOT

CHICAGO AREA WEATHER ROUNDUP
NATIONAL WEATHER SERVICE CHICAGO/ROMEOVILLE IL
400 PM CST MON FEB 20 2017

NOTE: "FAIR" INDICATES FEW OR NO CLOUDS BELOW 12,000 FEET WITH NO
SIGNIFICANT WEATHER AND/OR OBSTRUCTIONS TO VISIBILITY.

* THESE STATIONS ARE NOT UNDER NWS QUALITY CONTROL. THEY ALSO MAY NOT
  REPORT WEATHER SUCH AS PRECIPITATION OR FOG.

ILZ005-006-012>014-019>023-202300-
NORTHEAST ILLINOIS

CITY           SKY/WX    TMP DP  RH WIND       PRES   REMARKS
OHARE          CLOUDY    68  47  46 SE22G28   29.96F
MIDWAY         CLOUDY    67  45  45 SE17      29.98F
AURORA         CLOUDY    68  52  56 SE23G30   29.95F
LANSING*       MOSUNNY   65  49  56 SE14G20   30.00F
JOLIET*        MOSUNNY   69  52  55 SE15      29.98S
WAUKEGAN       CLOUDY    51  41  68 SE12      29.97F
DUPAGE AIRPORT MOSUNNY   67  49  52 S12       29.96F
WHEELING       CLOUDY    66  46  48 SE20      29.98F
KANKAKEE*      CLOUDY    67  49  52 SE14G20   30.01R
MORRIS*        CLOUDY    68  51  54 SE15      29.95S
LEWIS AIRPORT* LGT RAIN  65  52  62 S16       29.98S
NORTHERLY ISL    N/A     48  39  71 SE7         N/A
$$

WIZ051-052-058>065-066-070>072-202300-
SOUTHEAST WISCONSIN

CITY           SKY/WX    TMP DP  RH WIND       PRES   REMARKS
MILWAUKEE      CLOUDY    54  42  64 SE15      29.97F
KENOSHA*       CLOUDY    58  43  57 SE18G26   29.97F
RACINE*        CLOUDY    53  41  63 SE14      29.98F
WAUKESHA       PTSUNNY   55  43  62 SE16      29.97F
WEST BEND      CLOUDY    52  45  76 SE9       29.95F
$$

INZ001>003-010>013-019-020-202300-
NORTHWEST INDIANA

CITY           SKY/WX    TMP DP  RH WIND       PRES   REMARKS
GARY*          PTSUNNY   68  41  37 SE14G28   30.01F
MICHIGAN CITY* NOT AVBL
RENSSELAER*    NOT AVBL
VALPARAISO     MOSUNNY   66  43  43 SE15G22   30.04F
$$

LMZ740>746-202300-
SOUTHERN LAKE MICHIGAN

STATION/POSITION TIME  SKY/WX   TEMP WIND        PRES    VSBY
                                AIR  DIR/SP/G
                 (UTC)          (F)  (DEG/KT/KT) (MB)    (MI)
HARRISON CRIB    2140            51  140/ 20/ 21   N/A
BURNHAM HARBOR   2200            48  150/  6/  8   N/A
CALUMET HARBOR   2142            66  140/ 11/ 20 1015.1F
BURNS HARBOR     2200            65  140/ 12/ 22 1016.6
MICHIGAN CITY    2140            65  130/ 13/ 16   N/A
$$

ABBREVIATIONS USED IN REMARKS
   TC - TEMPERATURE IN CELSIUS
  WCI - WIND CHILL INDEX
   HX - HEAT INDEX
  VSB - VISIBILITY
$$




USA.gov is the U.S. government's official web portal to all federal, state and local government web resources and services.